This demonstration page uses our WeatherBlox Daily Observations layout. Learn more.

Left ArrowRight Arrow

39.95238, -75.16362

Hourly Observations for May 3, 2018

Temp ( °F °C ) Dew Point ( °F °C ) Humidity (%) Winds ( mph kmh ) Pressure ( in mb ) Visibility ( mi km ) Precip ( " mm )
12:54 am 00:54 Mostly Clear 67 19.4 45 7.2 45 45 SSW 7 11 30.03 1017 10 16 0.00 0.00
1:54 am 01:54 Mostly Clear 68 20 45 7.2 44 44 SW 6 9 30.03 1017 10 16 0.00 0.00
2:54 am 02:54 Partly Cloudy 68 20 47 8.3 47 47 SW 7 11 30.02 1017 10 16 0.00 0.00
3:54 am 03:54 Partly Cloudy 66 18.9 48 8.9 52 52 WSW 8 13 30.04 1017 10 16 0.00 0.00
4:54 am 04:54 Partly Cloudy 64 17.8 49 9.4 58 58 WSW 7 11 30.04 1017 10 16 0.00 0.00
5:54 am 05:54 Partly Cloudy 65 18.3 49 9.4 56 56 SW 10 17 30.05 1018 10 16 0.00 0.00
6:54 am 06:54 Mostly Cloudy 66 18.9 50 10 56 56 SW 13 20 30.06 1018 10 16 0.00 0.00
7:54 am 07:54 Mostly Cloudy 68 20 51 10.6 55 55 SW 12 19 30.07 1018 10 16 0.00 0.00
8:54 am 08:54 Mostly Cloudy 72 22.2 51 10.6 48 48 SW 14 22 30.08 1019 10 16 0.00 0.00
9:54 am 09:54 Partly Cloudy 77 25 51 10.6 40 40 SW 10 17 30.06 1018 10 16 0.00 0.00
10:54 am 10:54 Partly Cloudy 82 27.8 53 11.7 37 37 SW 12 19 30.05 1018 10 16 0.00 0.00
11:54 am 11:54 Partly Cloudy 85 29.4 55 12.8 36 36 SSW 15 24 30.03 1017 10 16 0.00 0.00
12:54 pm 12:54 Mostly Sunny 88 31.1 55 12.8 33 33 SW 17 28 30.01 1016 10 16 0.00 0.00
1:54 pm 13:54 Mostly Sunny 89 31.7 57 13.9 34 34 WSW 18 30 30.00 1016 10 16 0.00 0.00
2:54 pm 14:54 Partly Cloudy 90 32.2 55 12.8 31 31 SW 24 39 29.98 1015 10 16 0.00 0.00
3:54 pm 15:54 Partly Cloudy 90 32.2 54 12.2 29 29 SSW 21 33 29.96 1015 10 16 0.00 0.00
4:54 pm 16:54 Partly Cloudy 90 32.2 54 12.2 29 29 WSW 21 33 29.95 1014 10 16 0.00 0.00
5:54 pm 17:54 Mostly Cloudy 89 31.7 52 11.1 28 28 SSW 18 30 29.93 1014 10 16 0.00 0.00
6:54 pm 18:54 Mostly Cloudy 87 30.6 53 11.7 31 31 SSW 13 20 29.94 1014 10 16 0.00 0.00
7:54 pm 19:54 Mostly Cloudy 83 28.3 55 12.8 38 38 SW 10 17 29.95 1014 10 16 0.00 0.00
8:54 pm 20:54 Mostly Cloudy 81 27.2 58 14.4 45 45 SSW 13 20 29.96 1015 10 16 0.00 0.00
9:54 pm 21:54 Mostly Cloudy 79 26.1 59 15 50 50 SW 13 20 29.97 1015 10 16 0.00 0.00
10:54 pm 22:54 Mostly Cloudy 78 25.6 59 15 52 52 NW 10 17 29.98 1015 10 16 0.00 0.00
11:54 pm 23:54 Mostly Cloudy 75 23.9 60 15.6 60 60 SW 6 9 29.98 1015 10 16 0.00 0.00

Powered by AerisWeather